Вернуться в каталог

CZ-3 DEB

LostHEO
NORAD 26788·DEBRIS·🇨🇳 China

Запущен Feb 1, 1986 с Xichang Satellite Launch Center

Loading…

Ближайшие Пролёты (ближайшие 24 часа)

TLE

УстаревшееSource: Space-Track

Эпоха: Nov 22, 2018, 01:50 UTC

1 26788U 86010E   18326.07686854 -.00000149  00000-0 -13771-2 0  9997
2 26788  30.5932 212.8595 6838437 207.6481 350.7771  2.62616644175936

Отслеживайте CZ-3 DEB в реальном времени с AllMySat

Download on the App Store